Weather Roundup
Issued by NWS

Home | Current Version | Previous Version | Graphics & Text | Print | Product List | Glossary Off
Versions: 1 2 3 4 5 6 7 8 9 10 11 12 13 14 15 16 17 18 19 20 21 22 23 24 25 26 27 28 29 30 31 32 33 34 35 36 37 38 39 40 41 42 43 44 45 46 47 48 49 50

447
NZUS93 KARX 281259
HRRWXR

CURRENT HOURLY OBSERVATIONS ACROSS
MUCH OF THE UPPER MISSISSIPPI VALLEY
NATIONAL WEATHER SERVICE LA CROSSE WI
800 AM CDT WED SEP 28 2016


...SOUTHEAST MINNESOTA...


CITY           SKY/WX    TMP DP  RH WIND       PRES   REMARKS
ROCHESTER      LGT RAIN  50  49  96 NW14      30.02R FOG
ROCHESTER/MAYO CLOUDY    49  49 100 NW12G18   30.02R
WINONA         CLOUDY    54  50  87 NW13      29.99R
AUSTIN         CLOUDY    50  46  87 N12G17    30.03R
ALBERT LEA     CLOUDY    52  46  82 NW8       30.05R
DODGE CENTER   CLOUDY    48  46  93 N10       30.04R
PRESTON        CLOUDY    48  46  91 NW13      30.01R FOG
OWATONNA       CLOUDY    52  46  82 NW9       30.06R
FARIBAULT      CLOUDY    52  46  82 NW8       30.07R
$$

...ELSEWHERE IN MINNESOTA...


CITY           SKY/WX    TMP DP  RH WIND       PRES   REMARKS
MINNEAPOLIS    CLOUDY    52  47  83 N12       30.08R
INTNL FALLS    CLOUDY    51  47  86 NE5       30.19R
DULUTH         PTCLDY    50  48  93 N8        30.11R
RED WING       CLOUDY    54  48  82 N7        30.02R
REDWOOD FALLS  CLOUDY    47  45  93 NW8       30.14R FOG
MANKATO        NOT AVBL
WORTHINGTON    CLOUDY    44  42  93 N17       30.13R
FAIRMONT       CLOUDY    48  46  93 N12       30.10R
$$

...SOUTHWEST WISCONSIN...


CITY           SKY/WX    TMP DP  RH WIND       PRES   REMARKS
LA CROSSE      CLOUDY    54  51  90 NW10      29.96R
PRAIRIE DU CHI CLOUDY    51  47  88 NW8       29.94R
BOSCOBEL       CLOUDY    53  49  86 N6        29.94R
LONE ROCK      NOT AVBL
PLATTEVILLE    CLOUDY    49  49 100 NW9       29.92R
FORT MC COY    CLOUDY    50  50  99 N5        29.95R
CAMP DOUGLAS   PTSUNNY   50  50 100 NW10      29.92R
MAUSTON-NEW LI CLOUDY    51  50  98 NW6       29.91R FOG
VIROQUA        CLOUDY    49  49 100 NW10      29.94R
WIS DELLS      CLOUDY    49  48  96 NW5       29.90R FOG
$$

...ELSEWHERE IN WISCONSIN...


CITY           SKY/WX    TMP DP  RH WIND       PRES   REMARKS
MILWAUKEE      CLOUDY    53  49  86 N7        29.86R
MADISON        DRIZZLE   50  49  96 N8        29.89R FOG
GREEN BAY      PTSUNNY   50  50 100 N8        29.89R
EAU CLAIRE     NOT AVBL
BLACK RVR FLS  CLOUDY    52  52 100 NW3       29.94R
MEDFORD        CLOUDY   N/A N/A N/A N7        29.94R
WAUSAU         CLOUDY    52  48  86 N5        29.92R
WIS RAPIDS     CLOUDY    52  51  97 N8        29.93R
MARSHFIELD     CLOUDY    53  47  79 N10       29.93R
RICE LAKE      NOT AVBL
$$

...NORTHEAST IOWA...


CITY           SKY/WX    TMP DP  RH WIND       PRES   REMARKS
WATERLOO       CLOUDY    51  45  79 NW15      29.98R
DUBUQUE        CLOUDY    49  47  93 N9        29.93R FOG
DECORAH        CLOUDY    50  50 100 NW9       29.97R
MASON CITY     CLOUDY    50  46  86 N13       30.05R
CHARLES CITY   CLOUDY    50  48  93 NW10      30.01R
OELWEIN        CLOUDY    50  46  87 N12G22    29.98R
$$

...ELSEWHERE IN IOWA...


CITY           SKY/WX    TMP DP  RH WIND       PRES   REMARKS
DES MOINES     CLOUDY    53  43  68 N21       30.02R
IOWA CITY      CLOUDY    52  44  74 N17G25    29.97R
FORT DODGE     CLOUDY    48  41  76 N13G18    30.08R
MARSHALLTOWN   PTCLDY    50  45  83 N8        30.00R
CEDAR RAPIDS   CLOUDY    51  46  83 N17       29.95R
$$

...NORTHERN ILLINOIS...


CITY           SKY/WX    TMP DP  RH WIND       PRES   REMARKS
CHICAGO-OHARE  CLOUDY    51  46  83 N12       29.84R
CHICAGO-MIDWAY CLOUDY    52  47  83 N8        29.83R
MOLINE         CLOUDY    52  43  71 N14       29.92R
ROCKFORD       PTSUNNY   50  48  93 N9        29.89R
PEORIA         CLOUDY    51  45  79 N9        29.88R
$$

NOTE: "FAIR" INDICATES FEW OR NO CLOUDS BELOW 12,000 FEET WITH NO
SIGNIFICANT WEATHER AND/OR OBSTRUCTIONS TO VISIBILITY. WIND
SPEEDS ARE IN MILES-PER-HOUR.




USA.gov is the U.S. government's official web portal to all federal, state and local government web resources and services.